Tracking 31027 objects as of 19-Jul-2025
HD Live streaming from Space Station
objects crossing your sky now

SL-24 R/B

Track SL-24 R/B now!
10-day predictions


NORAD ID: 33397
Int'l Code: 2008-049B
Perigee: 682.5 km
Apogee: 1,175.4 km
Inclination: 98.7 °
Period: 103.5 minutes
Semi major axis: 7299 km
RCS: 5.3066 m2 (large)
Launch date: October 1, 2008
Source: Commonwealth of Independent States (former USSR) (CIS)
Launch site: Orenburg, Russia (OREN)

Note: This is a ROCKET BODY
Your satellite tracking list
Your tracking list is empty




NASA's NSSDC Master Catalog

Two Line Element Set (TLE):
1 33397U 08049B   25199.69028454  .00000198  00000-0  11903-3 0  9995
2 33397  98.6918 345.9005 0337625 213.2085 157.1282 13.91955849853153
Source of the keplerian elements: AFSPC